Location: Ayer Observatory
(42.2600°N, 71.0700°W)
Time: 11:22:14
(UTC-04:00)

FO-29 - Pass Details

Date: 25 August 2019
Orbit: 800 x 1321 km, 98.6° (Epoch: 18 September)

Event Time Altitude Azimuth Distance (km) Brightness Sun altitude
Exits shadow 04:46:06 18° 263° (W) 1,944 10.5 -13.8°
Maximum altitude 04:46:26 18° 268° (W) 1,935 10.5 -13.8°
Drops below altitude 10° 04:49:54 10° 310° (NW) 2,392 11.3 -13.2°
Sets 04:53:00 0° 330° (NNW) 3,318 12.3 -12.7°
